Location: Caramacate
(10.0289°N, 66.7587°W)
Time: 20:16:25
(UTC+00:00)

Cosmos 2098 - Pass Details

Date: 05 August 2024
Orbit: 387 x 1518 km, 82.9° (Epoch: 07 September)

Event Time Altitude Azimuth Distance (km) Brightness Sun altitude
Rises 23:26:00 0° 180° (S) 2,452 7.9 -9.6°
Reaches altitude 10° 23:28:09 10° 178° (S) 1,497 6.8 -10.1°
Maximum altitude 23:31:16 70° 94° (E) 418 4.0 -10.8°
Drops below altitude 10° 23:34:12 10° 9° (N) 1,410 7.0 -11.5°
Sets 23:36:10 0° 7° (N) 2,288 8.2 -12.0°
